Langebaanweg, South Africa

3:39 PM SAST on September 20, 2017 (GMT +0200)
Langebaanweg

Weather History for FALW - November, 2012

Change the Weather History Date:

Monday, November 12, 2012

  Actual Average Record
Temperature  
Mean Temperature 60 °F -  
Max Temperature 71 °F 75 °F 89 °F (1998)
Min Temperature 49 °F 55 °F 52 °F (2013)
Degree Days  
Heating Degree Days 5    
Growing Degree Days 10 (Base 50)    
Moisture  
Dew Point 49 °F    
Average Humidity 65    
Maximum Humidity 88    
Minimum Humidity 29    
Precipitation  
Precipitation 0.00 in - - ()
Sea Level Pressure  
Sea Level Pressure 29.96 in    
Wind  
Wind Speed 7 mph ()    
Max Wind Speed 23 mph    
Max Gust Speed -    
Visibility 6.2 miles    
Events      
Averages and records for this station are not official NWS values.
T = Trace of Precipitation, MM = Missing Value Source: Averaged Metar Reports

Daily Weather History Graph

Daily Weather History Graph

Search for Another Location

Airport or City:

Trip Planner

Search our weather history database for the weather conditions in past years. The results will help you decide how hot, cold, wet, or windy it might be!

Date:

Astronomy

Nov. 12, 2012 Rise Set
Actual Time 5:39 AM SAST 7:24 PM SAST
Civil Twilight 5:12 AM SAST 7:51 PM SAST
Nautical Twilight 4:39 AM SAST 8:23 PM SAST
Astronomical Twilight 4:05 AM SAST 8:58 PM SAST
Moon 4:16 AM SAST (11/12) 5:55 PM SAST (11/12)
Length of Visible Light 14h 39m
Length of Day
13h 45m
Waning Crescent, 3% of the Moon is Illuminated
Nov 12
Waning Crescent
Nov 14
New
Nov 20
First Quarter
Nov 28
Full
Dec 6
Last Quarter

Hourly Weather History & Observations

Time (SAST) Temp. Dew Point Humidity Pressure Visibility Wind Dir Wind Speed Gust Speed Precip Events Conditions
12:00 AM 55.4 °F 50.0 °F 82% 29.98 in - SW 1.2 mph - N/A   Unknown
1:00 AM 53.6 °F 48.2 °F 82% 29.98 in - WSW 2.3 mph - N/A   Unknown
2:00 AM 55 °F 50 °F 79% 29.96 in - SW 3.5 mph - -  
2:00 AM 53.6 °F 50.0 °F 88% 29.95 in - SW 3.5 mph - N/A   Unknown
3:00 AM 50.0 °F 44.6 °F 82% 29.92 in - East 3.5 mph - N/A   Unknown
4:00 AM 51.8 °F 48.2 °F 88% 29.95 in - WSW 1.2 mph - N/A   Unknown
5:00 AM 51 °F 47 °F 80% 29.94 in - SSE 2.3 mph - -  
5:00 AM 50.0 °F 46.4 °F 87% 29.92 in - SSE 1.2 mph - N/A   Unknown
6:00 AM 51.8 °F 48.2 °F 88% 29.86 in - NNE 2.3 mph - N/A   Unknown
7:00 AM 57.2 °F 51.8 °F 82% 29.95 in - ENE 2.3 mph - N/A   Unknown
8:00 AM 59 °F 54 °F 79% 30.01 in - WNW 8.1 mph - -  
8:00 AM - - N/A% 30.01 in 6.2 mi West 5.8 mph - N/A   Mostly Cloudy
9:00 AM - - N/A% 30.01 in 6.2 mi SSW 5.8 mph - N/A   Mostly Cloudy
10:00 AM 66.2 °F 55.4 °F 68% 29.92 in - SSE 8.1 mph - N/A   Unknown
11:00 AM 71 °F 56 °F 49% 29.94 in - South 9.2 mph - -  
11:00 AM - - N/A% 29.95 in 6.2 mi South 11.5 mph - N/A   Scattered Clouds
12:00 PM 69.8 °F 53.6 °F 56% 29.89 in - SW 17.3 mph - N/A   Unknown
1:00 PM 69.8 °F 53.6 °F 56% 29.92 in - SW 17.3 mph - N/A   Unknown
2:00 PM 70 °F 54 °F 46% 29.94 in - SW 17.3 mph - -  
2:00 PM 69.8 °F 53.6 °F 56% 29.92 in - SW 17.3 mph - N/A   Unknown
3:00 PM - - N/A% 29.92 in 6.2 mi WSW 23.0 mph - N/A   Mostly Cloudy
4:00 PM 68.0 °F 48.2 °F 49% 29.92 in - SSW 20.7 mph - N/A   Unknown
5:00 PM 69 °F 44 °F 29% 29.93 in - SSW 19.6 mph - -  
5:00 PM 68.0 °F 42.8 °F 40% 29.92 in - SSW 19.6 mph - N/A   Unknown
6:00 PM 68.0 °F 39.2 °F 35% 29.92 in - SSW 19.6 mph - N/A   Unknown
7:00 PM 64.4 °F 37.4 °F 37% 29.95 in - South 12.7 mph - N/A   Unknown
8:00 PM 63 °F 45 °F 41% 29.98 in - SW 9.2 mph - -  
8:00 PM 62.6 °F 44.6 °F 52% 29.98 in - SW 8.1 mph - N/A   Unknown
9:00 PM 59.0 °F 48.2 °F 67% 30.01 in - WSW 9.2 mph - N/A   Unknown
10:00 PM 57.2 °F 50.0 °F 77% 30.04 in - SW 6.9 mph - N/A   Unknown
11:00 PM 57 °F 51 °F 74% 30.06 in - WSW 9.2 mph - -  
11:00 PM 57.2 °F 50.0 °F 77% 30.04 in - WSW 8.1 mph - N/A   Unknown